Mankato, MN

2:26 AM CST on January 16, 2018 (GMT -0600)
Mankato Regional

Weather History for KMKT - May, 2009

Change the Weather History Date:

Wednesday, May 13, 2009

  Actual Average Record
Temperature  
Mean Temperature 63 °F -  
Max Temperature 69 °F 64 °F 91 °F (2007)
Min Temperature 57 °F 46 °F 28 °F (1997)
Degree Days  
Heating Degree Days 2    
Growing Degree Days 13 (Base 50)    
Moisture  
Dew Point 53 °F    
Average Humidity 75    
Maximum Humidity 94    
Minimum Humidity 26    
Precipitation  
Precipitation 0.02 in - - ()
Sea Level Pressure  
Sea Level Pressure 29.58 in    
Wind  
Wind Speed 16 mph (SW)    
Max Wind Speed 31 mph    
Max Gust Speed 43 mph    
Visibility 9 miles    
Events      
Averages and records for this station are not official NWS values.
T = Trace of Precipitation, MM = Missing Value Source: NWS Daily Summary

Daily Weather History Graph

Daily Weather History Graph

Search for Another Location

Airport or City:

Trip Planner

Search our weather history database for the weather conditions in past years. The results will help you decide how hot, cold, wet, or windy it might be!

Date:

Astronomy

May. 13, 2009 Rise Set
Actual Time 5:50 AM CDT 8:33 PM CDT
Civil Twilight 5:17 AM CDT 9:07 PM CDT
Nautical Twilight 4:35 AM CDT 9:49 PM CDT
Astronomical Twilight 3:47 AM CDT 10:38 PM CDT
Moon 12:16 AM CDT (5/13) 8:57 AM CDT (5/13)
Length of Visible Light 15h 49m
Length of Day
14h 42m
Waning Gibbous, 82% of the Moon is Illuminated
May 13
Waning Gibbous
May 17
Last Quarter
May 24
New
May 30
First Quarter
Jun 7
Full

Hourly Weather History & Observations

Time (CDT) Temp. Dew Point Humidity Pressure Visibility Wind Dir Wind Speed Gust Speed Precip Events Conditions
12:15 AM 57.2 °F 53.6 °F 88% 29.62 in 10.0 mi SSE 26.5 mph 34.5 mph N/A   Overcast
12:35 AM 57.2 °F 53.6 °F 88% 29.63 in 10.0 mi SSE 19.6 mph 35.7 mph N/A   Overcast
12:55 AM 57.2 °F 53.6 °F 88% 29.63 in 10.0 mi South 18.4 mph 29.9 mph N/A   Overcast
1:15 AM 57.2 °F 53.6 °F 88% 29.62 in 10.0 mi SSE 20.7 mph 27.6 mph N/A   Overcast
1:35 AM 57.2 °F 53.6 °F 88% 29.64 in 10.0 mi South 16.1 mph 25.3 mph N/A   Overcast
1:55 AM 57.2 °F 53.6 °F 88% 29.64 in 4.0 mi South 15.0 mph 24.2 mph N/A   Overcast
2:15 AM 57.2 °F 55.4 °F 94% 29.62 in 5.0 mi South 16.1 mph 25.3 mph N/A   Overcast
2:35 AM 57.2 °F 55.4 °F 94% 29.61 in 3.0 mi South 16.1 mph 23.0 mph N/A   Overcast
2:55 AM 57.2 °F 55.4 °F 94% 29.60 in 9.0 mi South 16.1 mph 23.0 mph N/A   Overcast
3:15 AM 57.2 °F 55.4 °F 94% 29.58 in 5.0 mi South 16.1 mph 27.6 mph N/A   Overcast
3:35 AM 57.2 °F 55.4 °F 94% 29.59 in 5.0 mi South 15.0 mph 25.3 mph N/A   Overcast
3:55 AM 57.2 °F 55.4 °F 94% 29.60 in 5.0 mi South 12.7 mph 23.0 mph N/A   Overcast
4:15 AM 57.2 °F 55.4 °F 94% 29.60 in 5.0 mi South 17.3 mph 21.9 mph N/A   Overcast
4:35 AM 57.2 °F 55.4 °F 94% 29.60 in 5.0 mi South 12.7 mph 21.9 mph N/A   Overcast
4:55 AM 57.2 °F 55.4 °F 94% 29.59 in 5.0 mi South 13.8 mph 19.6 mph N/A   Overcast
5:15 AM 57.2 °F 55.4 °F 94% 29.58 in 9.0 mi South 15.0 mph 23.0 mph N/A   Overcast
5:35 AM 57.2 °F 55.4 °F 94% 29.60 in 8.0 mi South 20.7 mph 26.5 mph N/A   Overcast
5:55 AM 57.2 °F 55.4 °F 94% 29.60 in 5.0 mi South 12.7 mph 20.7 mph 0.02 in   Overcast
6:35 AM 57.2 °F 55.4 °F 94% 29.54 in 5.0 mi South 18.4 mph 28.8 mph N/A   Overcast
6:55 AM 57.2 °F 55.4 °F 94% 29.55 in 5.0 mi South 15.0 mph 21.9 mph N/A   Overcast
7:15 AM 59.0 °F 57.2 °F 94% 29.56 in 5.0 mi SSW 18.4 mph 24.2 mph N/A   Overcast
7:35 AM 59.0 °F 57.2 °F 94% 29.59 in 7.0 mi SW 13.8 mph - N/A   Overcast
7:55 AM 60.8 °F 57.2 °F 88% 29.57 in 7.0 mi SSW 11.5 mph - N/A   Overcast
8:15 AM 60.8 °F 57.2 °F 88% 29.56 in 8.0 mi SSW 8.1 mph - N/A   Overcast
8:35 AM 60.8 °F 59.0 °F 94% 29.57 in 10.0 mi SW 10.4 mph - N/A   Overcast
8:55 AM 60.8 °F 59.0 °F 94% 29.56 in 10.0 mi SW 9.2 mph - N/A   Overcast
9:15 AM 62.6 °F 59.0 °F 88% 29.56 in 10.0 mi SSW 6.9 mph - N/A   Overcast
9:35 AM 62.6 °F 60.8 °F 94% 29.56 in 10.0 mi South 6.9 mph - N/A   Overcast
9:55 AM 64.4 °F 60.8 °F 88% 29.56 in 10.0 mi SW 9.2 mph - N/A   Overcast
10:15 AM 64.4 °F 60.8 °F 88% 29.56 in 10.0 mi SW 9.2 mph - N/A   Overcast
10:35 AM 64.4 °F 60.8 °F 88% 29.56 in 10.0 mi WSW 6.9 mph - N/A   Overcast
10:55 AM 64.4 °F 60.8 °F 88% 29.55 in 10.0 mi SW 10.4 mph - N/A   Overcast
11:15 AM 66.2 °F 60.8 °F 83% 29.56 in 10.0 mi WSW 9.2 mph - N/A   Mostly Cloudy
11:35 AM 66.2 °F 60.8 °F 83% 29.56 in 10.0 mi West 10.4 mph - N/A   Overcast
11:55 AM 68.0 °F 59.0 °F 73% 29.56 in 10.0 mi WNW 6.9 mph - N/A   Overcast
12:15 PM 68.0 °F 57.2 °F 68% 29.57 in 10.0 mi WSW 6.9 mph - N/A   Overcast
12:35 PM 68.0 °F 57.2 °F 68% 29.57 in 10.0 mi SW 11.5 mph 16.1 mph N/A   Overcast
12:55 PM 69.8 °F 59.0 °F 68% 29.57 in 10.0 mi WSW 12.7 mph 16.1 mph N/A   Overcast
1:15 PM 69.8 °F 55.4 °F 60% 29.57 in 10.0 mi West 15.0 mph - N/A   Overcast
1:35 PM 68.0 °F 55.4 °F 64% 29.57 in 10.0 mi West 12.7 mph 16.1 mph N/A   Overcast
1:55 PM 68.0 °F 51.8 °F 56% 29.58 in 10.0 mi NW 13.8 mph 18.4 mph N/A   Overcast
2:15 PM 66.2 °F 51.8 °F 60% 29.58 in 10.0 mi NW 12.7 mph - N/A   Overcast
2:35 PM 66.2 °F 51.8 °F 60% 29.57 in 10.0 mi NNW 15.0 mph - N/A   Mostly Cloudy
2:55 PM 66.2 °F 51.8 °F 60% 29.57 in 10.0 mi NW 13.8 mph - N/A   Mostly Cloudy
3:15 PM 66.2 °F 48.2 °F 52% 29.57 in 10.0 mi WNW 11.5 mph - N/A   Overcast
3:35 PM 66.2 °F 48.2 °F 52% 29.57 in 10.0 mi WNW 13.8 mph 18.4 mph N/A   Mostly Cloudy
3:55 PM 68.0 °F 48.2 °F 49% 29.56 in 10.0 mi NW 13.8 mph - N/A   Partly Cloudy
4:15 PM 68.0 °F 48.2 °F 49% 29.56 in 10.0 mi WNW 19.6 mph - N/A   Scattered Clouds
4:35 PM 68.0 °F 46.4 °F 46% 29.56 in 10.0 mi WNW 13.8 mph 23.0 mph N/A   Scattered Clouds
4:55 PM 69.8 °F 44.6 °F 40% 29.56 in 10.0 mi WNW 19.6 mph - N/A   Partly Cloudy
5:15 PM 68.0 °F 42.8 °F 40% 29.57 in 10.0 mi West 17.3 mph 21.9 mph N/A   Clear
5:35 PM 68.0 °F 41.0 °F 37% 29.54 in 10.0 mi West 12.7 mph - N/A   Partly Cloudy
5:55 PM 68.0 °F 39.2 °F 35% 29.55 in 10.0 mi West 12.7 mph 19.6 mph N/A   Mostly Cloudy
6:15 PM 68.0 °F 37.4 °F 33% 29.58 in 10.0 mi West 19.6 mph 27.6 mph N/A   Overcast
6:35 PM 68.0 °F 37.4 °F 33% 29.58 in 10.0 mi West 17.3 mph 24.2 mph N/A   Overcast
6:55 PM 69.8 °F 33.8 °F 27% 29.59 in 10.0 mi WNW 31.1 mph 38.0 mph N/A   Partly Cloudy
7:15 PM 66.2 °F 30.2 °F 26% 29.61 in 10.0 mi WNW 31.1 mph 42.6 mph N/A   Scattered Clouds
7:35 PM - - N/A% - 10.0 mi North - - N/A   Mostly Cloudy
7:55 PM 64.4 °F 26.6 °F 24% 29.62 in 10.0 mi WNW 28.8 mph 35.7 mph N/A   Mostly Cloudy
8:15 PM 62.6 °F 24.8 °F 24% 29.62 in 10.0 mi WNW 23.0 mph 34.5 mph N/A   Partly Cloudy
8:35 PM 60.8 °F 26.6 °F 27% 29.63 in 10.0 mi WNW 17.3 mph 23.0 mph N/A   Clear
8:55 PM 60.8 °F 24.8 °F 25% 29.63 in 10.0 mi WNW 20.7 mph 26.5 mph N/A   Clear
9:15 PM 59.0 °F 24.8 °F 27% 29.64 in 10.0 mi WNW 21.9 mph 27.6 mph N/A   Clear
9:35 PM 57.2 °F 24.8 °F 29% 29.65 in 10.0 mi WNW 18.4 mph 26.5 mph N/A   Clear
9:55 PM 57.2 °F 26.6 °F 31% 29.67 in 10.0 mi WNW 17.3 mph 27.6 mph N/A   Clear
10:15 PM 57.2 °F 26.6 °F 31% 29.68 in 10.0 mi WNW 15.0 mph 24.2 mph N/A   Clear
10:35 PM 55.4 °F 28.4 °F 36% 29.68 in 10.0 mi West 16.1 mph 23.0 mph N/A   Clear
10:55 PM 55.4 °F 28.4 °F 36% 29.69 in 10.0 mi West 18.4 mph 24.2 mph N/A   Clear
11:15 PM 55.4 °F 30.2 °F 38% 29.69 in 10.0 mi West 18.4 mph 25.3 mph N/A   Clear
11:35 PM 53.6 °F 30.2 °F 41% 29.70 in 10.0 mi West 17.3 mph 26.5 mph N/A   Clear
11:55 PM 53.6 °F 32.0 °F 44% 29.72 in 10.0 mi West 17.3 mph - N/A   Clear